Change the Weather History Date:

Sunday, March 13, 2011

  Actual Average Record
Temperature  
Mean Temperature 48 °F -  
Max Temperature 55 °F 49 °F 63 °F (2005)
Min Temperature 41 °F 39 °F 32 °F (2009)
Degree Days  
Heating Degree Days 17    
Moisture  
Dew Point 42 °F    
Average Humidity 86    
Maximum Humidity 100    
Minimum Humidity 60    
Precipitation  
Precipitation 0.37 in - - ()
Sea Level Pressure  
Sea Level Pressure 29.75 in    
Wind  
Wind Speed 4 mph (South)    
Max Wind Speed 17 mph    
Max Gust Speed 25 mph    
Visibility 9 miles    
Events Rain    
Averages and records for this station are not official NWS values.
T = Trace of Precipitation, MM = Missing Value Source: NWS Daily Summary

Daily Weather History Graph

Daily Weather History Graph

Search for Another Location

Airport or City:

Trip Planner

Search our weather history database for the weather conditions in past years. The results will help you decide how hot, cold, wet, or windy it might be!

Date:

Astronomy

Mar. 13, 2011 Rise Set
Actual Time 7:27 AM PDT 7:12 PM PDT
Civil Twilight 6:57 AM PDT 7:43 PM PDT
Nautical Twilight 6:21 AM PDT 8:18 PM PDT
Astronomical Twilight 5:45 AM PDT 8:55 PM PDT
Moon 12:08 PM PDT (3/13) 3:29 AM PDT (3/13)
Length of Visible Light 12h 46m
Length of Day
11h 45m
First Quarter, 58% of the Moon is Illuminated
Mar 13
First Quarter
Mar 19
Full
Mar 26
Last Quarter
Apr 3
New
Apr 11
First Quarter

Hourly Weather History & Observations

Time (PDT) Temp. Windchill Dew Point Humidity Pressure Visibility Wind Dir Wind Speed Gust Speed Precip Events Conditions
12:53 AM 43.0 °F - 39.0 °F 86% 29.96 in 10.0 mi Calm Calm - 0.00 in   Mostly Cloudy
1:53 AM 43.0 °F - 39.0 °F 86% 29.91 in 10.0 mi Calm Calm - N/A   Overcast
3:53 AM 44.1 °F - 37.9 °F 79% 29.87 in 10.0 mi Calm Calm - N/A   Overcast
5:53 AM 42.1 °F - 41.0 °F 96% 29.83 in 6.0 mi Calm Calm - 0.03 in Rain Light Rain
6:03 AM 41.0 °F - 41.0 °F 100% 29.82 in 2.5 mi Calm Calm - 0.00 in Rain Light Rain
6:11 AM 41.0 °F - 41.0 °F 100% 29.82 in 7.0 mi Calm Calm - 0.00 in Rain Light Rain
6:53 AM 42.1 °F - 41.0 °F 96% 29.81 in 10.0 mi Calm Calm - 0.01 in   Overcast
7:53 AM 42.1 °F - 42.1 °F 100% 29.78 in 10.0 mi Calm Calm - 0.00 in Rain Light Rain
8:53 AM 43.0 °F - 41.0 °F 93% 29.77 in 10.0 mi Calm Calm - 0.01 in Rain Light Rain
9:53 AM 46.9 °F - 43.0 °F 86% 29.74 in 10.0 mi SE 3.5 mph - 0.01 in Rain Light Rain
10:53 AM 45.0 °F - 44.1 °F 97% 29.72 in 9.0 mi Calm Calm - 0.03 in Rain Light Rain
11:53 AM 48.0 °F - 44.1 °F 86% 29.69 in 10.0 mi Calm Calm - 0.01 in Rain Light Rain
12:53 PM 52.0 °F - 44.1 °F 74% 29.65 in 10.0 mi SSE 5.8 mph - 0.01 in Rain Light Rain
1:53 PM 52.0 °F - 44.1 °F 74% 29.62 in 10.0 mi SE 3.5 mph - 0.00 in   Overcast
2:53 PM 54.0 °F - 43.0 °F 66% 29.57 in 10.0 mi Variable 4.6 mph - N/A   Overcast
3:53 PM 55.9 °F - 42.1 °F 60% 29.55 in 10.0 mi South 8.1 mph - N/A   Overcast
4:33 PM 50.0 °F - 46.4 °F 87% 29.60 in 2.0 mi SW 11.5 mph - 0.07 in Rain Heavy Rain
4:53 PM 50.0 °F - 46.9 °F 89% 29.62 in 4.0 mi South 15.0 mph 21.9 mph 0.16 in Rain Light Rain
5:53 PM 48.0 °F - 45.0 °F 89% 29.66 in 10.0 mi South 12.7 mph 19.6 mph 0.02 in   Mostly Cloudy
6:53 PM 46.9 °F - 43.0 °F 86% 29.70 in 10.0 mi SSW 12.7 mph 20.7 mph 0.01 in   Overcast
7:53 PM 46.0 °F 42.5 °F 42.1 °F 86% 29.74 in 10.0 mi South 6.9 mph - N/A   Mostly Cloudy
8:53 PM 45.0 °F 38.5 °F 42.1 °F 90% 29.77 in 8.0 mi South 13.8 mph - 0.02 in Rain Rain
9:20 PM 44.6 °F 39.2 °F 42.8 °F 93% 29.79 in 7.0 mi SSW 10.4 mph - 0.04 in Rain Rain
9:53 PM 45.0 °F 38.2 °F 42.1 °F 90% 29.81 in 10.0 mi South 15.0 mph 20.7 mph 0.05 in   Overcast
10:53 PM 45.0 °F 39.7 °F 41.0 °F 86% 29.83 in 10.0 mi South 10.4 mph - N/A   Mostly Cloudy
11:53 PM 45.0 °F 39.3 °F 39.9 °F 82% 29.81 in 10.0 mi SSE 11.5 mph - 0.00 in   Partly Cloudy
12:53 AM 46.0 °F 39.0 °F 39.0 °F 76% 29.81 in 10.0 mi South 17.3 mph 25.3 mph 0.00 in Rain Light Rain